Change the Weather History Date:

Sunday, October 7, 2012

  Actual Average Record
Temperature  
Mean Temperature 48 °F -  
Max Temperature 51 °F 78 °F 97 °F (2014)
Min Temperature 44 °F 54 °F 37 °F (2001)
Degree Days  
Heating Degree Days 16    
Moisture  
Dew Point 32 °F    
Average Humidity 53    
Maximum Humidity 68    
Minimum Humidity 41    
Precipitation  
Precipitation 0.00 in - - ()
Sea Level Pressure  
Sea Level Pressure 30.27 in    
Wind  
Wind Speed 9 mph (NNE)    
Max Wind Speed 14 mph    
Max Gust Speed 21 mph    
Visibility 10 miles    
Events      
Averages and records for this station are not official NWS values.
T = Trace of Precipitation, MM = Missing Value Source: NWS Daily Summary

Daily Weather History Graph

Daily Weather History Graph

Search for Another Location

Airport or City:

Trip Planner

Search our weather history database for the weather conditions in past years. The results will help you decide how hot, cold, wet, or windy it might be!

Date:

Astronomy

Oct. 07, 2012 Rise Set
Actual Time 7:27 AM CDT 7:04 PM CDT
Civil Twilight 7:02 AM CDT 7:29 PM CDT
Nautical Twilight 6:34 AM CDT 7:58 PM CDT
Astronomical Twilight 6:05 AM CDT 8:26 PM CDT
Moon No Moon Rise 1:53 PM CDT (10/7)
Length of Visible Light 12h 26m
Length of Day
11h 37m
Waning Gibbous, 56% of the Moon is Illuminated
Oct 7
Waning Gibbous
Oct 8
Last Quarter
Oct 15
New
Oct 21
First Quarter
Oct 29
Full

Hourly Weather History & Observations

Time (CDT) Temp. Windchill Dew Point Humidity Pressure Visibility Wind Dir Wind Speed Gust Speed Precip Events Conditions
12:53 AM 48.0 °F - 35.1 °F 61% 30.28 in 10.0 mi NE 12.7 mph - N/A   Overcast
1:53 AM 48.0 °F - 37.0 °F 66% 30.28 in 10.0 mi NE 6.9 mph - N/A   Overcast
2:53 AM 48.9 °F - 36.0 °F 61% 30.29 in 10.0 mi NNE 10.4 mph - N/A   Overcast
3:53 AM 48.0 °F - 36.0 °F 63% 30.28 in 10.0 mi North 12.7 mph - N/A   Overcast
4:53 AM 48.0 °F - 36.0 °F 63% 30.27 in 10.0 mi NNE 12.7 mph - N/A   Overcast
5:53 AM 48.0 °F - 36.0 °F 63% 30.29 in 10.0 mi North 10.4 mph - N/A   Overcast
6:53 AM 48.0 °F - 35.1 °F 61% 30.30 in 10.0 mi NNE 13.8 mph - N/A   Overcast
7:53 AM 48.0 °F - 32.0 °F 54% 30.30 in 10.0 mi NE 11.5 mph 19.6 mph N/A   Overcast
8:53 AM 48.0 °F - 30.9 °F 52% 30.30 in 10.0 mi NE 12.7 mph 20.7 mph N/A   Overcast
9:53 AM 48.0 °F - 30.9 °F 52% 30.33 in 10.0 mi NE 9.2 mph - N/A   Overcast
10:53 AM 48.9 °F - 30.0 °F 48% 30.33 in 10.0 mi NE 10.4 mph - 0.00 in   Overcast
12:53 PM 51.1 °F - 30.9 °F 46% 30.29 in 10.0 mi North 6.9 mph - N/A   Overcast
1:53 PM 51.1 °F - 30.9 °F 46% 30.27 in 10.0 mi North 5.8 mph - N/A   Overcast
2:53 PM 51.1 °F - 30.0 °F 44% 30.24 in 10.0 mi North 8.1 mph - N/A   Overcast
3:53 PM 51.1 °F - 30.0 °F 44% 30.22 in 10.0 mi North 8.1 mph - N/A   Overcast
4:53 PM 51.1 °F - 28.9 °F 43% 30.22 in 10.0 mi North 9.2 mph - N/A   Overcast
5:53 PM 50.0 °F - 28.0 °F 43% 30.22 in 10.0 mi North 8.1 mph - N/A   Overcast
6:53 PM 50.0 °F - 27.0 °F 41% 30.23 in 10.0 mi North 4.6 mph - N/A   Overcast
7:53 PM 50.0 °F - 28.9 °F 44% 30.23 in 10.0 mi Calm Calm - N/A   Overcast
8:53 PM 50.0 °F - 32.0 °F 50% 30.24 in 10.0 mi Calm Calm - N/A   Overcast
9:53 PM 48.9 °F - 34.0 °F 56% 30.25 in 10.0 mi Calm Calm - N/A   Overcast
10:53 PM 46.9 °F - 34.0 °F 61% 30.25 in 10.0 mi WSW 3.5 mph - N/A   Scattered Clouds
11:53 PM 44.1 °F 41.5 °F 34.0 °F 68% 30.24 in 10.0 mi West 4.6 mph - N/A   Clear